Kosmos-1791

operational
NORAD ID: 17066 Int'l Des: 1986-086 Owner: VMF Country: SU
LEOCIRCULARPOLAR

About Kosmos-1791

Description loading...

Live Position

Loading 3D Globe...

Upcoming Passes

Altitude History

Altitude vs Time

uPlot chart will show altitude changes over time

Two-Line Element Set

1 17066U 86086A 26062.19480237 .00000078 00000-0 64366-4 0 9992
2 17066 82.9519 340.0631 0040845 173.6973 340.9735 13.76045043973610
Epoch: Mar 3, 2026 • Age: 8 hours

Current Status

Altitude 950.7 km
Velocity 7.39 km/s
Sub-Earth Point 17.20°N, 126.42°W
Launch Date Nov 13, 1986
Age 39.3 years
Type other

Technical Details

Classification Payload
Mass 800.00 kg
Dry Mass 800.00 kg
Total Mass 800.00 kg
Length 5.00 m
Diameter 2.10 m
Span 17.00 m
Shape Cyl + Ant
Manufacturer OAZ
Bus Type KAUR-1 11F643
Phase Status In Orbit
Owner/State VMF/SU

Large Constellations

Loading constellations...